| time (UTC) | temp F | wind direction | speed knots | gust knots | rain 1hr in | rain 24hr in | rain mn in | humidity % | barometer mb |
| 20260507141539 | 62 | 360 | 0.9 | 5.2 | 0.00 | 0.00 | 0.00 | 50 | 1014.7 |
| 20260507141012 | 61 | 360 | 1.7 | 5.2 | 0.00 | 0.00 | 0.00 | 48 | 1014.7 |
| 20260507140510 | 61 | 360 | 0.0 | 7.0 | 0.00 | 0.00 | 0.00 | 48 | 1014.8 |
| 20260507140028 | 62 | 360 | 2.6 | 7.0 | 0.00 | 0.00 | 0.00 | 47 | 1014.9 |
| 20260507135510 | 62 | 360 | 1.7 | 4.3 | 0.00 | 0.00 | 0.00 | 47 | 1014.7 |
| 20260507135009 | 63 | 25 | 0.9 | 4.3 | 0.00 | 0.00 | 0.00 | 48 | 1014.9 |
| 20260507134530 | 63 | 0 | 0.0 | 4.3 | 0.00 | 0.00 | 0.00 | 48 | 1014.7 |
| 20260507134011 | 63 | 360 | 0.9 | 7.0 | 0.00 | 0.00 | 0.00 | 48 | 1015.0 |
| 20260507133512 | 62 | 360 | 1.7 | 7.0 | 0.00 | 0.00 | 0.00 | 48 | 1015.0 |
| 20260507133030 | 62 | 360 | 0.9 | 5.2 | 0.00 | 0.00 | 0.00 | 50 | 1015.1 |
| 20260507132511 | 61 | 360 | 1.7 | 5.2 | 0.00 | 0.00 | 0.00 | 51 | 1015.0 |
| 20260507132013 | 60 | 360 | 0.0 | 4.3 | 0.00 | 0.00 | 0.00 | 51 | 1014.9 |
| 20260507131532 | 59 | 0 | 0.9 | 4.3 | 0.00 | 0.00 | 0.00 | 52 | 1015.0 |
| 20260507131014 | 59 | 360 | 1.7 | 4.3 | 0.00 | 0.00 | 0.00 | 51 | 1015.0 |
| 20260507130508 | 60 | 360 | 0.9 | 4.3 | 0.00 | 0.00 | 0.00 | 52 | 1015.1 |
| 20260507130038 | 60 | 360 | 0.9 | 4.3 | 0.00 | 0.00 | 0.00 | 52 | 1015.1 |
| 20260507125511 | 60 | 360 | 0.9 | 4.3 | 0.00 | 0.00 | 0.00 | 51 | 1015.1 |
| 20260507125008 | 60 | 360 | 0.0 | 7.0 | 0.00 | 0.00 | 0.00 | 51 | 1015.1 |
| 20260507124530 | 61 | 360 | 0.0 | 7.0 | 0.00 | 0.00 | 0.00 | 51 | 1015.1 |
| 20260507124008 | 61 | 360 | 2.6 | 7.0 | 0.00 | 0.00 | 0.00 | 51 | 1015.1 |
| 20260507123511 | 60 | 0 | 0.9 | 4.3 | 0.00 | 0.00 | 0.00 | 52 | 1015.1 |
| 20260507123032 | 60 | 360 | 1.7 | 4.3 | 0.00 | 0.00 | 0.00 | 51 | 1015.1 |
| 20260507122509 | 60 | 360 | 0.9 | 5.2 | 0.00 | 0.00 | 0.00 | 52 | 1015.1 |
| 20260507122013 | 59 | 360 | 1.7 | 7.0 | 0.00 | 0.00 | 0.00 | 52 | 1015.0 |
| 20260507121528 | 59 | 360 | 1.7 | 7.0 | 0.00 | 0.00 | 0.00 | 52 | 1015.1 |
| 20260507121012 | 59 | 360 | 0.9 | 7.8 | 0.00 | 0.00 | 0.00 | 54 | 1015.1 |
| 20260507120508 | 60 | 360 | 0.9 | 7.8 | 0.00 | 0.00 | 0.00 | 52 | 1015.2 |
| 20260507120028 | 60 | 360 | 3.5 | 7.8 | 0.00 | 0.00 | 0.00 | 50 | 1015.2 |
| 20260507115508 | 62 | 360 | 0.9 | 4.3 | 0.00 | 0.00 | 0.00 | 47 | 1015.3 |
| 20260507115011 | 62 | 360 | 1.7 | 5.2 | 0.00 | 0.00 | 0.00 | 49 | 1015.3 |
| 20260507114529 | 62 | 211 | 0.0 | 7.0 | 0.00 | 0.00 | 0.00 | 51 | 1015.2 |
| 20260507114009 | 61 | 360 | 1.7 | 7.0 | 0.00 | 0.00 | 0.00 | 53 | 1015.2 |
| 20260507113509 | 60 | 360 | 0.9 | 4.3 | 0.00 | 0.00 | 0.00 | 53 | 1015.2 |
| 20260507113027 | 60 | 360 | 1.7 | 5.2 | 0.00 | 0.00 | 0.00 | 55 | 1015.3 |
| 20260507112511 | 61 | 360 | 0.9 | 5.2 | 0.00 | 0.00 | 0.00 | 55 | 1015.4 |
| 20260507112013 | 61 | 360 | 1.7 | 5.2 | 0.00 | 0.00 | 0.00 | 54 | 1015.4 |
| 20260507111529 | 61 | 360 | 0.0 | 7.0 | 0.00 | 0.00 | 0.00 | 52 | 1015.3 |
| 20260507111012 | 61 | 360 | 1.7 | 7.0 | 0.00 | 0.00 | 0.00 | 56 | 1015.3 |
| 20260507110509 | 60 | 360 | 0.9 | 7.8 | 0.00 | 0.00 | 0.00 | 57 | 1015.4 |
| 20260507110028 | 60 | 360 | 0.9 | 7.8 | 0.00 | 0.00 | 0.00 | 57 | 1015.4 |
| 20260507105508 | 59 | 360 | 4.3 | 7.8 | 0.00 | 0.00 | 0.00 | 54 | 1015.5 |
| 20260507105013 | 59 | 0 | 1.7 | 7.0 | 0.00 | 0.00 | 0.00 | 57 | 1015.6 |
| 20260507104530 | 59 | 360 | 1.7 | 5.2 | 0.00 | 0.00 | 0.00 | 59 | 1015.6 |
| 20260507104012 | 59 | 360 | 0.9 | 5.2 | 0.00 | 0.00 | 0.00 | 60 | 1015.6 |
| 20260507103509 | 58 | 360 | 0.9 | 8.7 | 0.00 | 0.00 | 0.00 | 61 | 1015.6 |
| 20260507103029 | 58 | 360 | 1.7 | 8.7 | 0.00 | 0.00 | 0.00 | 61 | 1015.7 |
| 20260507102510 | 58 | 360 | 3.5 | 8.7 | 0.00 | 0.00 | 0.00 | 60 | 1015.7 |
| 20260507102011 | 58 | 360 | 0.9 | 4.3 | 0.00 | 0.00 | 0.00 | 62 | 1015.7 |
| 20260507101530 | 58 | 360 | 0.9 | 5.2 | 0.00 | 0.00 | 0.00 | 61 | 1015.7 |
| 20260507101011 | 58 | 360 | 1.7 | 5.2 | 0.00 | 0.00 | 0.00 | 63 | 1015.9 |
| 20260507100511 | 58 | 360 | 0.9 | 8.7 | 0.00 | 0.00 | 0.00 | 64 | 1015.8 |
| 20260507100036 | 57 | 360 | 1.7 | 8.7 | 0.00 | 0.00 | 0.00 | 64 | 1015.9 |
| 20260507095510 | 57 | 360 | 1.7 | 7.0 | 0.00 | 0.00 | 0.00 | 65 | 1015.8 |
| 20260507095013 | 57 | 360 | 1.7 | 7.0 | 0.00 | 0.00 | 0.00 | 66 | 1015.8 |
| 20260507094531 | 57 | 360 | 1.7 | 7.0 | 0.00 | 0.00 | 0.00 | 66 | 1015.7 |
| 20260507094013 | 56 | 0 | 0.9 | 9.6 | 0.00 | 0.00 | 0.00 | 68 | 1015.8 |
| 20260507093511 | 55 | 360 | 0.9 | 9.6 | 0.00 | 0.00 | 0.00 | 69 | 1015.8 |
| 20260507093028 | 55 | 360 | 0.9 | 7.0 | 0.00 | 0.00 | 0.00 | 70 | 1015.8 |
| 20260507092509 | 55 | 360 | 2.6 | 7.8 | 0.00 | 0.00 | 0.00 | 68 | 1015.8 |
| 20260507092010 | 55 | 360 | 1.7 | 8.7 | 0.00 | 0.00 | 0.00 | 68 | 1015.9 |
| 20260507091534 | 55 | 360 | 0.9 | 8.7 | 0.00 | 0.00 | 0.00 | 70 | 1015.9 |
| 20260507091015 | 54 | 360 | 1.7 | 8.7 | 0.00 | 0.00 | 0.00 | 71 | 1015.9 |
| 20260507090508 | 54 | 360 | 1.7 | 7.8 | 0.00 | 0.00 | 0.00 | 72 | 1016.0 |
| 20260507090029 | 54 | 360 | 3.5 | 8.7 | 0.00 | 0.00 | 0.00 | 71 | 1016.0 |
| 20260507085510 | 54 | 360 | 1.7 | 8.7 | 0.00 | 0.00 | 0.00 | 71 | 1015.9 |
| 20260507085010 | 54 | 360 | 3.5 | 8.7 | 0.00 | 0.00 | 0.00 | 70 | 1016.0 |
| 20260507084531 | 54 | 121 | 1.7 | 7.8 | 0.00 | 0.00 | 0.00 | 71 | 1016.0 |
| 20260507084013 | 55 | 360 | 2.6 | 7.8 | 0.00 | 0.00 | 0.00 | 71 | 1015.9 |
| 20260507083509 | 54 | 0 | 0.0 | 7.0 | 0.00 | 0.00 | 0.00 | 71 | 1015.9 |
| 20260507083028 | 54 | 360 | 1.7 | 7.0 | 0.00 | 0.00 | 0.00 | 71 | 1016.0 |
| 20260507082508 | 54 | 360 | 1.7 | 7.0 | 0.00 | 0.00 | 0.00 | 72 | 1016.0 |
| 20260507082011 | 54 | 360 | 0.0 | 5.2 | 0.00 | 0.00 | 0.00 | 72 | 1015.8 |
| 20260507081529 | 53 | 360 | 1.7 | 5.2 | 0.00 | 0.00 | 0.00 | 72 | 1015.9 |
| 20260507081009 | 53 | 360 | 0.9 | 4.3 | 0.00 | 0.00 | 0.00 | 72 | 1016.0 |
| 20260507080513 | 53 | 360 | 0.9 | 4.3 | 0.00 | 0.00 | 0.00 | 73 | 1015.9 |
| 20260507080030 | 53 | 360 | 0.9 | 7.8 | 0.00 | 0.00 | 0.00 | 73 | 1015.9 |
| 20260507075509 | 53 | 360 | 0.9 | 7.8 | 0.00 | 0.00 | 0.00 | 73 | 1015.9 |
| 20260507075009 | 53 | 360 | 1.7 | 7.8 | 0.00 | 0.00 | 0.00 | 74 | 1015.9 |
| 20260507074528 | 52 | 360 | 0.9 | 4.3 | 0.00 | 0.00 | 0.00 | 75 | 1015.9 |
| 20260507074012 | 52 | 360 | 0.9 | 4.3 | 0.00 | 0.00 | 0.00 | 75 | 1015.8 |
| 20260507073510 | 52 | 360 | 0.9 | 4.3 | 0.00 | 0.00 | 0.00 | 76 | 1015.8 |
| 20260507073031 | 51 | 360 | 0.9 | 3.5 | 0.00 | 0.00 | 0.00 | 77 | 1015.8 |
| 20260507072510 | 51 | 0 | 0.0 | 7.0 | 0.00 | 0.00 | 0.00 | 78 | 1015.8 |
| 20260507072011 | 50 | 360 | 1.7 | 7.0 | 0.00 | 0.00 | 0.00 | 78 | 1015.7 |
| 20260507071534 | 49 | 360 | 0.9 | 4.3 | 0.00 | 0.00 | 0.00 | 80 | 1015.7 |
| 20260507071011 | 49 | 360 | 0.9 | 4.3 | 0.00 | 0.00 | 0.00 | 80 | 1015.6 |
| 20260507070509 | 48 | 360 | 2.6 | 5.2 | 0.00 | 0.00 | 0.00 | 81 | 1015.7 |
| 20260507070033 | 48 | 360 | 0.9 | 5.2 | 0.00 | 0.00 | 0.00 | 83 | 1015.8 |
| 20260507065509 | 47 | 0 | 0.9 | 4.3 | 0.00 | 0.00 | 0.00 | 84 | 1015.8 |
| 20260507065009 | 46 | 360 | 0.9 | 3.5 | 0.00 | 0.00 | 0.00 | 85 | 1015.8 |
| 20260507064550 | 46 | 360 | 1.7 | 3.5 | 0.00 | 0.00 | 0.00 | 85 | 1015.7 |
| 20260507064013 | 45 | 0 | 0.0 | 5.2 | 0.00 | 0.00 | 0.00 | 86 | 1015.8 |
| 20260507063511 | 45 | 360 | 1.7 | 5.2 | 0.00 | 0.00 | 0.00 | 86 | 1015.7 |
| 20260507063034 | 45 | 0 | 0.0 | 2.6 | 0.00 | 0.00 | 0.00 | 87 | 1015.7 |
| 20260507062512 | 45 | 360 | 0.0 | 3.5 | 0.00 | 0.00 | 0.00 | 87 | 1015.7 |
| 20260507062011 | 44 | 0 | 0.9 | 3.5 | 0.00 | 0.00 | 0.00 | 87 | 1015.7 |
| 20260507061532 | 44 | 0 | 0.9 | 3.5 | 0.00 | 0.00 | 0.00 | 87 | 1015.6 |
| 20260507061012 | 44 | 360 | 0.9 | 3.5 | 0.00 | 0.00 | 0.00 | 87 | 1015.7 |
| 20260507060507 | 44 | 0 | 0.0 | 3.5 | 0.00 | 0.00 | 0.00 | 87 | 1015.6 |
| 20260507060029 | 44 | 360 | 0.0 | 2.6 | 0.00 | 0.00 | 0.00 | 88 | 1015.6 |
| 20260507055508 | 44 | 0 | 0.0 | 2.6 | 0.00 | 0.00 | 0.00 | 88 | 1015.6 |
| 20260507055008 | 44 | 0 | 0.0 | 2.6 | 0.00 | 0.00 | 0.00 | 88 | 1015.6 |
| 20260507054530 | 44 | 0 | 0.0 | 2.6 | 0.00 | 0.00 | 0.00 | 88 | 1015.6 |
| 20260507054009 | 44 | 0 | 0.0 | 2.6 | 0.00 | 0.00 | 0.00 | 88 | 1015.5 |
| 20260507053511 | 44 | 0 | 0.0 | 1.7 | 0.00 | 0.00 | 0.00 | 88 | 1015.5 |
| 20260507053028 | 43 | 0 | 0.0 | 0.9 | 0.00 | 0.00 | 0.00 | 88 | 1015.5 |
| 20260507052509 | 43 | 0 | 0.0 | 0.9 | 0.00 | 0.00 | 0.00 | 88 | 1015.5 |
| 20260507052010 | 43 | 0 | 0.0 | 4.3 | 0.00 | 0.00 | 0.00 | 88 | 1015.5 |
| 20260507051530 | 43 | 0 | 0.0 | 4.3 | 0.00 | 0.00 | 0.00 | 88 | 1015.4 |
| 20260507051009 | 43 | 360 | 0.9 | 4.3 | 0.00 | 0.00 | 0.00 | 88 | 1015.4 |
| 20260507050511 | 43 | 0 | 0.0 | 2.6 | 0.00 | 0.00 | 0.00 | 88 | 1015.2 |
| 20260507050038 | 43 | 360 | 0.0 | 2.6 | 0.00 | 0.00 | 0.00 | 88 | 1015.4 |
| 20260507045512 | 43 | 0 | 0.0 | 2.6 | 0.00 | 0.00 | 0.00 | 88 | 1015.4 |
| 20260507045009 | 43 | 0 | 0.0 | 2.6 | 0.00 | 0.00 | 0.00 | 88 | 1015.4 |
| 20260507044528 | 43 | 0 | 0.0 | 3.5 | 0.00 | 0.00 | 0.00 | 88 | 1015.3 |
| 20260507044013 | 43 | 0 | 0.0 | 3.5 | 0.00 | 0.00 | 0.00 | 88 | 1015.3 |
| 20260507043507 | 43 | 360 | 0.0 | 2.6 | 0.00 | 0.00 | 0.00 | 88 | 1015.4 |
| 20260507043028 | 43 | 360 | 0.0 | 1.7 | 0.00 | 0.00 | 0.00 | 89 | 1015.3 |
| 20260507042509 | 43 | 0 | 0.0 | 1.7 | 0.00 | 0.00 | 0.00 | 89 | 1015.3 |
| 20260507042008 | 43 | 360 | 0.0 | 5.2 | 0.00 | 0.00 | 0.00 | 89 | 1015.3 |
| 20260507041529 | 43 | 0 | 0.0 | 5.2 | 0.00 | 0.00 | 0.00 | 89 | 1015.1 |
| 20260507041010 | 43 | 360 | 1.7 | 5.2 | 0.00 | 0.00 | 0.00 | 89 | 1015.1 |
| 20260507040512 | 43 | 0 | 0.0 | 2.6 | 0.00 | 0.00 | 0.00 | 89 | 1015.0 |
| 20260507040029 | 43 | 0 | 0.0 | 2.6 | 0.00 | 0.00 | 0.00 | 89 | 1015.1 |
| 20260507035511 | 43 | 0 | 0.0 | 3.5 | 0.00 | 0.00 | 0.00 | 89 | 1015.0 |
| 20260507035008 | 43 | 360 | 0.0 | 3.5 | 0.00 | 0.00 | 0.00 | 89 | 1015.0 |
| 20260507034529 | 43 | 0 | 0.0 | 2.6 | 0.00 | 0.00 | 0.00 | 89 | 1015.0 |
| 20260507034008 | 43 | 360 | 0.0 | 3.5 | 0.00 | 0.00 | 0.00 | 89 | 1015.1 |
| 20260507033509 | 43 | 360 | 0.9 | 3.5 | 0.00 | 0.00 | 0.00 | 89 | 1015.1 |
| 20260507033029 | 43 | 360 | 0.9 | 2.6 | 0.00 | 0.00 | 0.00 | 89 | 1015.1 |
| 20260507032510 | 43 | 0 | 0.9 | 3.5 | 0.00 | 0.00 | 0.00 | 89 | 1015.1 |
| 20260507032012 | 43 | 0 | 0.0 | 4.3 | 0.00 | 0.00 | 0.00 | 89 | 1015.2 |
| 20260507031528 | 43 | 360 | 0.9 | 5.2 | 0.00 | 0.00 | 0.00 | 89 | 1015.2 |
| 20260507031007 | 43 | 360 | 1.7 | 5.2 | 0.00 | 0.00 | 0.00 | 89 | 1015.2 |
| 20260507030516 | 43 | 0 | 1.7 | 7.0 | 0.00 | 0.00 | 0.00 | 89 | 1015.2 |
| 20260507030035 | 42 | 360 | 1.7 | 7.0 | 0.00 | 0.00 | 0.00 | 89 | 1015.2 |
| 20260507025508 | 42 | 0 | 0.9 | 2.6 | 0.00 | 0.00 | 0.00 | 90 | 1015.2 |
| 20260507025010 | 42 | 360 | 0.9 | 2.6 | 0.00 | 0.00 | 0.00 | 90 | 1015.2 |
| 20260507024530 | 42 | 360 | 0.0 | 2.6 | 0.00 | 0.00 | 0.00 | 89 | 1015.2 |
| 20260507024011 | 42 | 360 | 0.0 | 1.7 | 0.00 | 0.00 | 0.00 | 89 | 1015.2 |
| 20260507023508 | 42 | 0 | 0.0 | 1.7 | 0.00 | 0.00 | 0.00 | 89 | 1015.3 |
| 20260507023029 | 42 | 0 | 0.0 | 2.6 | 0.00 | 0.00 | 0.00 | 89 | 1015.3 |
| 20260507022509 | 42 | 360 | 0.9 | 2.6 | 0.00 | 0.00 | 0.00 | 89 | 1015.1 |
| 20260507022010 | 42 | 0 | 0.0 | 1.7 | 0.00 | 0.00 | 0.00 | 89 | 1015.1 |
| 20260507021530 | 42 | 0 | 0.0 | 1.7 | 0.00 | 0.00 | 0.00 | 89 | 1015.2 |
| 20260507021013 | 42 | 0 | 0.0 | 2.6 | 0.00 | 0.00 | 0.00 | 89 | 1015.2 |
| 20260507020507 | 42 | 360 | 0.9 | 3.5 | 0.00 | 0.00 | 0.00 | 89 | 1015.2 |
| 20260507020031 | 42 | 360 | 0.9 | 3.5 | 0.00 | 0.00 | 0.00 | 89 | 1015.2 |
| 20260507015511 | 42 | 360 | 0.9 | 2.6 | 0.00 | 0.00 | 0.00 | 88 | 1015.2 |
| 20260507015013 | 42 | 360 | 0.9 | 1.7 | 0.00 | 0.00 | 0.00 | 88 | 1015.2 |
| 20260507014530 | 42 | 0 | 0.0 | 1.7 | 0.00 | 0.00 | 0.00 | 88 | 1015.3 |
| 20260507014012 | 42 | 360 | 0.0 | 1.7 | 0.00 | 0.00 | 0.00 | 88 | 1015.3 |
| 20260507013508 | 42 | 0 | 0.0 | 0.0 | 0.00 | 0.00 | 0.00 | 87 | 1015.3 |
| 20260507013029 | 42 | 0 | 0.0 | 0.9 | 0.00 | 0.00 | 0.00 | 87 | 1015.3 |
| 20260507012509 | 42 | 0 | 0.0 | 1.7 | 0.00 | 0.00 | 0.00 | 87 | 1015.3 |
| 20260507012009 | 42 | 0 | 0.0 | 1.7 | 0.00 | 0.00 | 0.00 | 87 | 1015.4 |
| 20260507011534 | 42 | 0 | 0.0 | 1.7 | 0.00 | 0.00 | 0.00 | 87 | 1015.4 |
| 20260507011008 | 42 | 360 | 0.0 | 2.6 | 0.00 | 0.00 | 0.00 | 87 | 1015.4 |
| 20260507010510 | 42 | 0 | 0.0 | 2.6 | 0.00 | 0.00 | 0.00 | 87 | 1015.5 |
| 20260507010043 | 42 | 360 | 0.0 | 2.6 | 0.00 | 0.00 | 0.00 | 87 | 1015.5 |
| 20260507005509 | 43 | 0 | 0.0 | 0.0 | 0.00 | 0.00 | 0.00 | 87 | 1015.5 |
| 20260507005009 | 43 | 0 | 0.0 | 1.7 | 0.00 | 0.00 | 0.00 | 87 | 1015.5 |
| 20260507004532 | 43 | 0 | 0.0 | 2.6 | 0.00 | 0.00 | 0.00 | 87 | 1015.5 |
| 20260507004009 | 43 | 360 | 0.0 | 2.6 | 0.00 | 0.00 | 0.00 | 87 | 1015.5 |
| 20260507003511 | 43 | 360 | 0.9 | 2.6 | 0.00 | 0.00 | 0.00 | 87 | 1015.5 |
| 20260507003029 | 43 | 360 | 0.0 | 1.7 | 0.00 | 0.00 | 0.00 | 87 | 1015.6 |
| 20260507002514 | 43 | 0 | 0.0 | 2.6 | 0.00 | 0.00 | 0.00 | 87 | 1015.7 |
| 20260507002016 | 43 | 0 | 0.0 | 2.6 | 0.00 | 0.00 | 0.00 | 87 | 1015.7 |
| 20260507001528 | 43 | 360 | 0.0 | 1.7 | 0.00 | 0.00 | 0.00 | 87 | 1015.8 |
| 20260507001010 | 43 | 0 | 0.0 | 1.7 | 0.00 | 0.00 | 0.00 | 87 | 1015.8 |
| 20260507000508 | 43 | 0 | 0.0 | 2.6 | 0.00 | 0.00 | 0.00 | 87 | 1015.8 |
| 20260507000027 | 43 | 0 | 0.0 | 4.3 | 0.00 | 0.00 | 0.00 | 87 | 1015.7 |
| 20260506235509 | 43 | 360 | 0.9 | 4.3 | 0.00 | 0.00 | 0.00 | 87 | 1015.7 |
| 20260506235009 | 43 | 360 | 0.9 | 4.3 | 0.00 | 0.00 | 0.00 | 87 | 1015.8 |
| 20260506234532 | 43 | 360 | 0.0 | 2.6 | 0.00 | 0.00 | 0.00 | 87 | 1015.9 |
| 20260506234009 | 43 | 360 | 0.9 | 2.6 | 0.00 | 0.00 | 0.00 | 87 | 1015.8 |
| 20260506233512 | 43 | 0 | 0.9 | 2.6 | 0.00 | 0.00 | 0.00 | 87 | 1015.8 |
| 20260506233030 | 43 | 360 | 0.0 | 2.6 | 0.00 | 0.00 | 0.00 | 87 | 1015.7 |
| 20260506232508 | 43 | 0 | 0.0 | 2.6 | 0.00 | 0.00 | 0.00 | 87 | 1015.7 |
| 20260506232009 | 43 | 360 | 0.9 | 3.5 | 0.00 | 0.00 | 0.00 | 87 | 1015.7 |
| 20260506231529 | 43 | 360 | 0.0 | 5.2 | 0.00 | 0.00 | 0.00 | 87 | 1015.7 |
| 20260506231015 | 43 | 360 | 1.7 | 5.2 | 0.00 | 0.00 | 0.00 | 86 | 1015.6 |
| 20260506230512 | 43 | 360 | 1.7 | 4.3 | 0.00 | 0.00 | 0.00 | 86 | 1015.7 |
| 20260506230029 | 43 | 360 | 1.7 | 5.2 | 0.00 | 0.00 | 0.00 | 86 | 1015.7 |
| 20260506225511 | 43 | 360 | 1.7 | 5.2 | 0.00 | 0.00 | 0.00 | 86 | 1015.7 |
| 20260506225011 | 43 | 360 | 1.7 | 4.3 | 0.00 | 0.00 | 0.00 | 86 | 1015.7 |
| 20260506224536 | 43 | 360 | 1.7 | 4.3 | 0.00 | 0.00 | 0.00 | 86 | 1015.7 |
| 20260506224011 | 43 | 360 | 1.7 | 4.3 | 0.00 | 0.00 | 0.00 | 86 | 1015.7 |
| 20260506223512 | 43 | 360 | 0.9 | 7.0 | 0.00 | 0.00 | 0.00 | 86 | 1015.7 |
| 20260506223030 | 43 | 360 | 2.6 | 7.0 | 0.00 | 0.00 | 0.00 | 86 | 1015.7 |
| 20260506222511 | 43 | 360 | 2.6 | 7.0 | 0.00 | 0.00 | 0.00 | 87 | 1015.7 |
| 20260506222014 | 42 | 360 | 0.9 | 4.3 | 0.00 | 0.00 | 0.00 | 86 | 1015.7 |
| 20260506221530 | 43 | 360 | 1.7 | 4.3 | 0.00 | 0.00 | 0.00 | 86 | 1015.6 |
| 20260506221009 | 43 | 360 | 0.9 | 4.3 | 0.00 | 0.00 | 0.00 | 86 | 1015.6 |
| 20260506220512 | 43 | 360 | 1.7 | 4.3 | 0.00 | 0.00 | 0.00 | 86 | 1015.5 |
| 20260506220035 | 43 | 360 | 0.9 | 4.3 | 0.00 | 0.00 | 0.00 | 86 | 1015.6 |
| 20260506215515 | 43 | 360 | 1.7 | 4.3 | 0.00 | 0.00 | 0.00 | 85 | 1015.5 |
| 20260506215011 | 43 | 360 | 0.9 | 3.5 | 0.00 | 0.00 | 0.00 | 85 | 1015.5 |
| 20260506214531 | 43 | 360 | 1.7 | 3.5 | 0.00 | 0.00 | 0.00 | 85 | 1015.4 |
| 20260506214013 | 43 | 360 | 0.9 | 5.2 | 0.00 | 0.00 | 0.00 | 85 | 1015.5 |
| 20260506213512 | 43 | 360 | 1.7 | 5.2 | 0.00 | 0.00 | 0.00 | 85 | 1015.4 |
| 20260506213030 | 43 | 360 | 2.6 | 5.2 | 0.00 | 0.00 | 0.00 | 85 | 1015.4 |
| 20260506212510 | 44 | 360 | 1.7 | 5.2 | 0.00 | 0.00 | 0.00 | 85 | 1015.2 |
| 20260506212011 | 44 | 360 | 1.7 | 4.3 | 0.00 | 0.00 | 0.00 | 85 | 1015.2 |
| 20260506211534 | 44 | 360 | 1.7 | 4.3 | 0.00 | 0.00 | 0.00 | 84 | 1015.1 |
| 20260506211012 | 44 | 360 | 1.7 | 7.0 | 0.00 | 0.00 | 0.00 | 84 | 1015.1 |
| 20260506210509 | 44 | 360 | 3.5 | 8.7 | 0.00 | 0.00 | 0.00 | 84 | 1015.0 |
| 20260506210033 | 44 | 360 | 2.6 | 8.7 | 0.00 | 0.00 | 0.00 | 84 | 1015.0 |
| 20260506205513 | 44 | 360 | 2.6 | 8.7 | 0.00 | 0.00 | 0.00 | 84 | 1014.9 |
| 20260506205010 | 44 | 360 | 3.5 | 8.7 | 0.00 | 0.00 | 0.00 | 83 | 1014.8 |
| 20260506204535 | 44 | 360 | 2.6 | 8.7 | 0.00 | 0.00 | 0.00 | 83 | 1014.8 |
| 20260506204012 | 44 | 360 | 3.5 | 8.7 | 0.00 | 0.00 | 0.00 | 83 | 1014.7 |
| 20260506203511 | 45 | 360 | 3.5 | 8.7 | 0.00 | 0.00 | 0.00 | 83 | 1014.7 |
| 20260506203032 | 45 | 360 | 3.5 | 8.7 | 0.00 | 0.00 | 0.00 | 82 | 1014.7 |
| 20260506202509 | 45 | 360 | 3.5 | 7.8 | 0.00 | 0.00 | 0.00 | 82 | 1014.7 |
| 20260506202009 | 45 | 360 | 3.5 | 7.8 | 0.00 | 0.00 | 0.00 | 82 | 1014.7 |
| 20260506201537 | 45 | 360 | 2.6 | 7.0 | 0.00 | 0.00 | 0.00 | 82 | 1014.6 |
| 20260506201012 | 45 | 360 | 3.5 | 7.0 | 0.00 | 0.00 | 0.00 | 82 | 1014.7 |
| 20260506200509 | 45 | 360 | 1.7 | 7.0 | 0.00 | 0.00 | 0.00 | 81 | 1014.6 |
| 20260506200027 | 46 | 360 | 2.6 | 7.8 | 0.00 | 0.00 | 0.00 | 81 | 1014.5 |
| 20260506195510 | 46 | 360 | 2.6 | 7.8 | 0.00 | 0.00 | 0.00 | 80 | 1014.5 |
| 20260506195010 | 46 | 360 | 3.5 | 7.8 | 0.00 | 0.00 | 0.00 | 80 | 1014.5 |
| 20260506194527 | 46 | 360 | 2.6 | 8.7 | 0.00 | 0.00 | 0.00 | 80 | 1014.4 |
| 20260506194009 | 46 | 360 | 3.5 | 8.7 | 0.00 | 0.00 | 0.00 | 79 | 1014.4 |
| 20260506193512 | 47 | 360 | 3.5 | 8.7 | 0.00 | 0.00 | 0.00 | 79 | 1014.5 |
| 20260506193030 | 47 | 360 | 2.6 | 9.6 | 0.00 | 0.00 | 0.00 | 79 | 1014.5 |
| 20260506192511 | 47 | 360 | 2.6 | 9.6 | 0.00 | 0.00 | 0.00 | 79 | 1014.4 |
| 20260506192015 | 47 | 360 | 3.5 | 9.6 | 0.00 | 0.00 | 0.00 | 78 | 1014.4 |
| 20260506191530 | 47 | 360 | 2.6 | 9.6 | 0.00 | 0.00 | 0.00 | 78 | 1014.5 |
| 20260506191008 | 47 | 360 | 2.6 | 8.7 | 0.00 | 0.00 | 0.00 | 78 | 1014.5 |
| 20260506190507 | 48 | 360 | 1.7 | 7.8 | 0.00 | 0.00 | 0.00 | 78 | 1014.5 |
| 20260506190030 | 48 | 360 | 2.6 | 7.8 | 0.00 | 0.00 | 0.00 | 78 | 1014.5 |
| 20260506185510 | 48 | 360 | 1.7 | 7.8 | 0.00 | 0.00 | 0.00 | 77 | 1014.4 |
| 20260506185011 | 48 | 360 | 2.6 | 7.8 | 0.00 | 0.00 | 0.00 | 77 | 1014.6 |
| 20260506184532 | 48 | 360 | 2.6 | 7.8 | 0.00 | 0.00 | 0.00 | 77 | 1014.6 |
| 20260506184010 | 48 | 360 | 3.5 | 7.8 | 0.00 | 0.00 | 0.00 | 77 | 1014.6 |
| 20260506183511 | 48 | 360 | 3.5 | 8.7 | 0.00 | 0.00 | 0.00 | 76 | 1014.5 |
| 20260506183032 | 49 | 360 | 3.5 | 8.7 | 0.00 | 0.00 | 0.00 | 75 | 1014.6 |
| 20260506182509 | 49 | 360 | 3.5 | 9.6 | 0.00 | 0.00 | 0.00 | 74 | 1014.5 |
| 20260506182012 | 50 | 360 | 3.5 | 9.6 | 0.00 | 0.00 | 0.00 | 73 | 1014.6 |
| 20260506181530 | 50 | 360 | 3.5 | 9.6 | 0.00 | 0.00 | 0.00 | 73 | 1014.5 |
| 20260506181012 | 51 | 360 | 3.5 | 8.7 | 0.00 | 0.00 | 0.00 | 73 | 1014.5 |
| 20260506180510 | 51 | 360 | 4.3 | 8.7 | 0.00 | 0.00 | 0.00 | 72 | 1014.5 |
| 20260506180033 | 51 | 360 | 1.7 | 7.8 | 0.00 | 0.00 | 0.00 | 73 | 1014.5 |
| 20260506175512 | 50 | 360 | 2.6 | 9.6 | 0.00 | 0.00 | 0.00 | 73 | 1014.4 |
| 20260506175009 | 50 | 360 | 6.1 | 9.6 | 0.00 | 0.00 | 0.00 | 73 | 1014.4 |
| 20260506174532 | 50 | 360 | 3.5 | 8.7 | 0.00 | 0.00 | 0.00 | 73 | 1014.3 |
| 20260506174009 | 50 | 360 | 2.6 | 7.8 | 0.00 | 0.00 | 0.00 | 73 | 1014.3 |
| 20260506173510 | 49 | 360 | 3.5 | 7.0 | 0.00 | 0.00 | 0.00 | 73 | 1014.2 |
| 20260506173029 | 49 | 360 | 3.5 | 7.0 | 0.00 | 0.00 | 0.00 | 73 | 1014.1 |
| 20260506172510 | 49 | 360 | 2.6 | 9.6 | 0.00 | 0.00 | 0.00 | 73 | 1014.2 |
| 20260506172012 | 49 | 360 | 2.6 | 9.6 | 0.00 | 0.00 | 0.00 | 72 | 1014.3 |
| 20260506171538 | 49 | 360 | 3.5 | 9.6 | 0.00 | 0.00 | 0.00 | 71 | 1014.3 |
| 20260506171011 | 50 | 360 | 3.5 | 9.6 | 0.00 | 0.00 | 0.00 | 71 | 1014.2 |
| 20260506170513 | 50 | 360 | 5.2 | 10.4 | 0.00 | 0.00 | 0.00 | 71 | 1014.1 |
| 20260506170030 | 50 | 360 | 5.2 | 14.8 | 0.00 | 0.00 | 0.00 | 72 | 1014.1 |
| 20260506165512 | 50 | 360 | 4.3 | 14.8 | 0.00 | 0.00 | 0.00 | 72 | 1014.0 |
| 20260506165012 | 50 | 360 | 3.5 | 11.3 | 0.00 | 0.00 | 0.00 | 71 | 1014.0 |
| 20260506164528 | 50 | 360 | 5.2 | 11.3 | 0.00 | 0.00 | 0.00 | 71 | 1014.1 |
| 20260506164011 | 50 | 360 | 3.5 | 9.6 | 0.00 | 0.00 | 0.00 | 70 | 1014.0 |
| 20260506163511 | 50 | 360 | 4.3 | 9.6 | 0.00 | 0.00 | 0.00 | 69 | 1014.0 |
| 20260506163034 | 51 | 360 | 3.5 | 9.6 | 0.00 | 0.00 | 0.00 | 68 | 1013.9 |
| 20260506162512 | 51 | 360 | 3.5 | 8.7 | 0.00 | 0.00 | 0.00 | 67 | 1014.0 |
| 20260506162013 | 51 | 360 | 4.3 | 9.6 | 0.00 | 0.00 | 0.00 | 66 | 1014.0 |
| 20260506161531 | 51 | 360 | 4.3 | 9.6 | 0.00 | 0.00 | 0.00 | 66 | 1013.9 |
| 20260506161012 | 52 | 360 | 4.3 | 9.6 | 0.00 | 0.00 | 0.00 | 65 | 1013.8 |
| 20260506160511 | 52 | 360 | 4.3 | 8.7 | 0.00 | 0.00 | 0.00 | 66 | 1013.7 |
| 20260506160031 | 52 | 360 | 3.5 | 8.7 | 0.00 | 0.00 | 0.00 | 65 | 1013.8 |
| 20260506155511 | 52 | 360 | 3.5 | 9.6 | 0.00 | 0.00 | 0.00 | 65 | 1013.8 |
| 20260506155011 | 52 | 360 | 4.3 | 9.6 | 0.00 | 0.00 | 0.00 | 66 | 1013.7 |
| 20260506154533 | 53 | 360 | 3.5 | 7.8 | 0.00 | 0.00 | 0.00 | 64 | 1013.6 |
| 20260506154013 | 53 | 360 | 3.5 | 8.7 | 0.00 | 0.00 | 0.00 | 62 | 1013.7 |
| 20260506153512 | 52 | 360 | 2.6 | 8.7 | 0.00 | 0.00 | 0.00 | 63 | 1013.7 |
| 20260506153028 | 52 | 360 | 3.5 | 8.7 | 0.00 | 0.00 | 0.00 | 64 | 1013.7 |
| 20260506152515 | 52 | 360 | 3.5 | 7.8 | 0.00 | 0.00 | 0.00 | 63 | 1013.7 |
| 20260506152009 | 53 | 360 | 2.6 | 7.8 | 0.00 | 0.00 | 0.00 | 64 | 1013.8 |
| 20260506151538 | 52 | 360 | 3.5 | 9.6 | 0.00 | 0.00 | 0.00 | 62 | 1013.8 |
| 20260506151012 | 52 | 360 | 3.5 | 10.4 | 0.00 | 0.00 | 0.00 | 63 | 1013.9 |
| 20260506150513 | 52 | 360 | 4.3 | 10.4 | 0.00 | 0.00 | 0.00 | 63 | 1014.0 |
| 20260506150030 | 52 | 360 | 4.3 | 10.4 | 0.00 | 0.00 | 0.00 | 63 | 1013.9 |
| 20260506145511 | 53 | 360 | 3.5 | 8.7 | 0.00 | 0.00 | 0.00 | 62 | 1013.9 |
| 20260506145011 | 53 | 360 | 3.5 | 10.4 | 0.00 | 0.00 | 0.00 | 61 | 1013.8 |
| 20260506144528 | 53 | 360 | 3.5 | 10.4 | 0.00 | 0.00 | 0.00 | 60 | 1013.9 |
| 20260506144013 | 54 | 360 | 4.3 | 10.4 | 0.00 | 0.00 | 0.00 | 60 | 1013.9 |
| 20260506143509 | 54 | 360 | 3.5 | 10.4 | 0.00 | 0.00 | 0.00 | 59 | 1013.8 |
| 20260506143028 | 55 | 360 | 2.6 | 10.4 | 0.00 | 0.00 | 0.00 | 54 | 1013.8 |
| 20260506142511 | 55 | 51 | 0.9 | 5.2 | 0.00 | 0.00 | 0.00 | 53 | 1013.7 |
| 20260506142014 | 55 | 360 | 1.7 | 8.7 | 0.00 | 0.00 | 0.00 | 53 | 1013.8 |